This is the latest recevied weather packets stored in our database for station/object N4QEP-13. If no packets are shown the sender has not sent any weather packets the latest 10 day(s).
| Time | Temp. | Humidity | Pressure | Rain* | Wind** | Luminosity | Snow |
|---|---|---|---|---|---|---|---|
| 1777920304 | 26.67° C | 27% | 1017.4 hPa | 0 mm | - | - | - |
| 1777919401 | 26.67° C | 24% | 1017.5 hPa | 0 mm | - | - | - |
| 1777918561 | 26.11° C | 26% | 1017.7 hPa | 0 mm | - | - | - |
| 1777917655 | 26.11° C | 25% | 1017.9 hPa | 0 mm | - | - | - |
| 1777916755 | 26.11° C | 28% | 1018 hPa | 0 mm | - | - | - |
| 1777915853 | 26.11° C | 27% | 1018.1 hPa | 0 mm | - | - | - |
| 1777914047 | 26.11° C | 24% | 1018.5 hPa | 0 mm | - | - | - |
| 1777913147 | 25.56° C | 29% | 1018.5 hPa | 0 mm | - | - | - |
| 1777912257 | 25.56° C | 26% | 1018.7 hPa | 0 mm | - | - | - |
| 1777911344 | 25.56° C | 27% | 1019 hPa | 0 mm | - | - | - |
| 1777910439 | 25° C | 26% | 1019.1 hPa | 0 mm | - | - | - |
| 1777909544 | 24.44° C | 28% | 1019.3 hPa | 0 mm | - | - | - |
| 1777908638 | 24.44° C | 29% | 1019.3 hPa | 0 mm | - | - | - |
| 1777907734 | 23.89° C | 29% | 1019.5 hPa | 0 mm | - | - | - |
| 1777906834 | 22.78° C | 38% | 1019.4 hPa | 0 mm | - | - | - |
| 1777905927 | 22.78° C | 41% | 1019.5 hPa | 0 mm | - | - | - |
| 1777905029 | 22.22° C | 44% | 1019.6 hPa | 0 mm | - | - | - |
| 1777904120 | 20° C | 48% | 1019.7 hPa | 0 mm | - | - | - |
| 1777903213 | 19.44° C | 56% | 1019.8 hPa | 0 mm | - | - | - |
| 1777902316 | 18.33° C | 61% | 1019.9 hPa | 0 mm | - | - | - |
| 1777901407 | 17.78° C | 62% | 1019.7 hPa | 0 mm | - | - | - |
| 1777900503 | 16.11° C | 67% | 1019.5 hPa | 0 mm | - | - | - |
| 1777899660 | 14.44° C | 69% | 1019.4 hPa | 0 mm | - | - | - |
| 1777898757 | 13.89° C | 70% | 1019.3 hPa | 0 mm | - | - | - |
| 1777897860 | 12.22° C | 74% | 1019.2 hPa | 0 mm | - | - | - |
* Rain latest hour (hover to see other rain measurements)
** Current wind speed in m/s (hover to see current wind gust speed)